EW9474 Weather Reports


time (UTC)temp
C
wind
direction
speed
KPH
gust
KPH
rain 1hr
cm
rain 24hr
cm
rain mn
cm
humidity
%
barometer
mb
20200229094817 12 337 1.6 3.2 0.00 0.00 0.00 69 1014.9
20200229093817 12 0.0 1.6 0.00 0.00 0.00 67 1015.1
20200229092816 12 0.0 0.0 0.00 0.00 0.00 68 1015.4
20200229091816 12 0.0 1.6 0.00 0.00 0.00 68 1015.5
20200229090816 12 0.0 0.0 0.00 0.00 0.00 67 1015.6
20200229085816 12 0.0 1.6 0.00 0.00 0.00 75 1015.7
20200229084816 11 0.0 1.6 0.00 0.00 0.00 73 1015.9
20200229083816 11 0.0 0.0 0.00 0.00 0.00 81 1015.9
20200229082816 11 0.0 0.0 0.00 0.00 0.00 82 1015.9
20200229081817 11 0.0 1.6 0.00 0.00 0.00 83 1016.0
20200229080817 11 0.0 0.0 0.00 0.00 0.00 83 1016.1
20200229075816 11 0.0 1.6 0.00 0.00 0.00 80 1016.2
20200229074816 11 0.0 0.0 0.00 0.00 0.00 77 1016.3
20200229073818 10 0.0 0.0 0.00 0.00 0.00 80 1016.4
20200229072816 10 0.0 0.0 0.00 0.00 0.00 81 1016.6
20200229071818 10 0.0 0.0 0.00 0.00 0.00 82 1016.7
20200229070816 10 0.0 0.0 0.00 0.00 0.00 81 1016.8
20200229065815 10 0.0 0.0 0.00 0.00 0.00 82 1016.8
20200229064815 9 0.0 0.0 0.00 0.00 0.00 78 1017.1
20200229063815 9 0.0 0.0 0.00 0.00 0.00 78 1017.0
20200229062815 10 0.0 0.0 0.00 0.00 0.00 76 1017.0
20200229061817 10 0.0 0.0 0.00 0.00 0.00 78 1017.1
20200229060815 10 0.0 0.0 0.00 0.00 0.00 77 1017.0
20200229055815 10 0.0 0.0 0.00 0.00 0.00 75 1017.0
20200229054815 11 0.0 0.0 0.00 0.00 0.00 78 1017.2
20200229053815 11 0.0 0.0 0.00 0.00 0.00 75 1017.3
20200229052815 11 0.0 0.0 0.00 0.00 0.00 72 1017.2
20200229051816 11 0.0 1.6 0.00 0.00 0.00 65 1017.0
20200229050817 12 0.0 0.0 0.00 0.00 0.00 58 1016.8
20200229045817 12 0.0 0.0 0.00 0.00 0.00 60 1016.8
20200229044817 12 0.0 1.6 0.00 0.00 0.00 60 1016.7
20200229043817 13 270 1.6 1.6 0.00 0.00 0.00 57 1016.7
20200229042817 13 0.0 0.0 0.00 0.00 0.00 62 1016.7
20200229041817 13 0.0 0.0 0.00 0.00 0.00 66 1016.8
20200229040818 13 0.0 0.0 0.00 0.00 0.00 68 1017.1
20200229035822 13 0.0 1.6 0.00 0.00 0.00 72 1016.9
20200229034818 14 0.0 0.0 0.00 0.00 0.00 68 1016.9
20200229033818 15 0.0 0.0 0.00 0.00 0.00 64 1016.8
20200229032817 16 0.0 0.0 0.00 0.00 0.00 60 1016.7
20200229031817 16 0.0 0.0 0.00 0.00 0.00 48 1016.8
20200229030817 16 0.0 0.0 0.00 0.00 0.00 47 1016.7
20200229025817 16 0.0 0.0 0.00 0.00 0.00 48 1016.6
20200229024817 16 0.0 0.0 0.00 0.00 0.00 46 1016.4
20200229023817 17 0.0 0.0 0.00 0.00 0.00 48 1016.2
20200229022817 18 0.0 0.0 0.00 0.00 0.00 53 1016.1
20200229021817 19 0.0 0.0 0.00 0.00 0.00 51 1016.1
20200229020817 20 0.0 0.0 0.00 0.00 0.00 47 1015.9
20200229015818 21 0.0 0.0 0.00 0.00 0.00 46 1015.8
20200229014817 22 0.0 0.0 0.00 0.00 0.00 31 1015.8
20200229013817 22 0.0 1.6 0.00 0.00 0.00 29 1015.6
20200229012817 22 0.0 0.0 0.00 0.00 0.00 38 1015.9
20200229011817 23 0.0 1.6 0.00 0.00 0.00 37 1015.8
20200229010817 23 0.0 1.6 0.00 0.00 0.00 37 1015.9
20200229005817 23 292 1.6 3.2 0.00 0.00 0.00 34 1016.0
20200229004817 23 0.0 1.6 0.00 0.00 0.00 37 1015.8
20200229003817 24 0.0 1.6 0.00 0.00 0.00 35 1016.1
20200229002817 25 292 3.2 4.8 0.00 0.00 0.00 32 1015.9
20200229001817 25 0.0 1.6 0.00 0.00 0.00 33 1015.6
20200229000817 25 0.0 1.6 0.00 0.00 0.00 31 1015.9
20200228235817 25 292 3.2 4.8 0.00 0.00 0.00 28 1016.2
20200228234816 25 270 1.6 3.2 0.00 0.00 0.00 32 1016.3
20200228233817 26 270 4.8 4.8 0.00 0.00 0.00 30 1016.2
20200228232817 26 270 4.8 6.4 0.00 0.00 0.00 28 1016.0
20200228231817 26 270 3.2 4.8 0.00 0.00 0.00 27 1016.1
20200228230816 26 270 6.4 9.7 0.00 0.00 0.00 26 1016.1
20200228225817 26 270 3.2 4.8 0.00 0.00 0.00 27 1016.1
20200228224817 27 270 4.8 6.4 0.00 0.00 0.00 26 1016.1
20200228223817 27 270 6.4 9.7 0.00 0.00 0.00 26 1016.0
20200228222816 26 270 4.8 6.4 0.00 0.00 0.00 28 1016.0
20200228221816 27 270 11.3 16.1 0.00 0.00 0.00 26 1016.2
20200228220816 27 270 8.0 12.9 0.00 0.00 0.00 26 1016.3
20200228215816 28 270 4.8 9.7 0.00 0.00 0.00 24 1016.3
20200228214816 28 270 8.0 16.1 0.00 0.00 0.00 25 1016.3
20200228213816 28 270 11.3 14.5 0.00 0.00 0.00 23 1016.3
20200228212817 29 247 1.6 3.2 0.00 0.00 0.00 18 1016.2
20200228211816 29 247 3.2 4.8 0.00 0.00 0.00 18 1016.4
20200228210817 29 247 3.2 4.8 0.00 0.00 0.00 20 1016.4
20200228205816 29 225 4.8 6.4 0.00 0.00 0.00 17 1016.3
20200228204816 29 247 3.2 4.8 0.00 0.00 0.00 20 1016.3
20200228203816 30 270 1.6 4.8 0.00 0.00 0.00 15 1016.4
20200228202816 30 270 1.6 1.6 0.00 0.00 0.00 21 1016.3
20200228201816 30 270 1.6 4.8 0.00 0.00 0.00 16 1016.4
20200228200816 29 0.0 1.6 0.00 0.00 0.00 21 1016.5
20200228195816 28 225 1.6 3.2 0.00 0.00 0.00 19 1016.6
20200228194816 28 0 1.6 1.6 0.00 0.00 0.00 18 1016.8
20200228193817 28 0 4.8 6.4 0.00 0.00 0.00 20 1017.1
20200228192816 28 315 3.2 4.8 0.00 0.00 0.00 19 1017.2
20200228191817 27 0 1.6 3.2 0.00 0.00 0.00 17 1017.5
20200228190816 26 67 1.6 3.2 0.00 0.00 0.00 24 1017.7
20200228185816 26 0 3.2 6.4 0.00 0.00 0.00 18 1018.0
20200228184816 26 45 4.8 6.4 0.00 0.00 0.00 23 1018.0
20200228183816 26 45 6.4 8.0 0.00 0.00 0.00 24 1018.1
20200228182816 26 45 6.4 9.7 0.00 0.00 0.00 19 1018.3
20200228181817 25 0 4.8 6.4 0.00 0.00 0.00 24 1018.2
20200228180816 25 0 3.2 4.8 0.00 0.00 0.00 28 1018.2
20200228175816 23 337 1.6 3.2 0.00 0.00 0.00 29 1018.2
20200228174816 23 337 1.6 3.2 0.00 0.00 0.00 29 1018.3
20200228173816 21 337 3.2 4.8 0.00 0.00 0.00 32 1018.3
20200228172817 20 0.0 1.6 0.00 0.00 0.00 42 1018.4
20200228171816 20 0.0 0.0 0.00 0.00 0.00 46 1018.6
20200228170815 19 0.0 1.6 0.00 0.00 0.00 51 1018.4
20200228165816 18 0.0 1.6 0.00 0.00 0.00 53 1018.5
20200228164816 18 0.0 1.6 0.00 0.00 0.00 54 1018.6
20200228163815 17 0.0 1.6 0.00 0.00 0.00 53 1018.7
20200228162816 17 0.0 1.6 0.00 0.00 0.00 51 1018.8
20200228161816 16 0.0 0.0 0.00 0.00 0.00 51 1018.6
20200228160816 16 292 1.6 3.2 0.00 0.00 0.00 61 1018.6
20200228155816 15 0.0 0.0 0.00 0.00 0.00 67 1018.2
20200228154815 14 0.0 0.0 0.00 0.00 0.00 72 1018.0
20200228153816 13 0.0 0.0 0.00 0.00 0.00 72 1017.8
20200228152816 13 0.0 0.0 0.00 0.00 0.00 66 1017.8
20200228151816 12 45 1.6 3.2 0.00 0.00 0.00 66 1017.6
20200228150816 11 45 4.8 6.4 0.00 0.00 0.00 69 1017.5
20200228145815 11 0.0 0.0 0.00 0.00 0.00 76 1017.8
20200228144815 10 0.0 0.0 0.00 0.00 0.00 71 1017.5
20200228143816 10 0.0 0.0 0.00 0.00 0.00 72 1017.4
20200228142815 10 45 1.6 3.2 0.00 0.00 0.00 69 1017.2
20200228141815 9 45 1.6 3.2 0.00 0.00 0.00 71 1017.1
20200228140815 8 0.0 1.6 0.00 0.00 0.00 75 1017.1
20200228135815 8 0.0 0.0 0.00 0.00 0.00 76 1016.9
20200228134816 8 0.0 1.6 0.00 0.00 0.00 74 1016.6
20200228133815 8 67 1.6 1.6 0.00 0.00 0.00 77 1016.3
20200228132816 7 157 1.6 4.8 0.00 0.00 0.00 80 1016.3
20200228131815 7 157 1.6 1.6 0.00 0.00 0.00 81 1016.5
20200228130815 7 157 1.6 3.2 0.00 0.00 0.00 81 1016.6
20200228125816 8 0.0 1.6 0.00 0.00 0.00 81 1016.7
20200228124815 8 0.0 1.6 0.00 0.00 0.00 79 1016.7
20200228123816 8 0.0 0.0 0.00 0.00 0.00 77 1016.7
20200228122815 9 0.0 1.6 0.00 0.00 0.00 74 1016.7
20200228121815 10 0.0 1.6 0.00 0.00 0.00 74 1016.6
20200228120815 10 0.0 1.6 0.00 0.00 0.00 75 1016.4
20200228115818 10 0.0 1.6 0.00 0.00 0.00 75 1016.3
20200228114817 10 157 1.6 1.6 0.00 0.00 0.00 75 1016.2
20200228113817 9 0.0 1.6 0.00 0.00 0.00 75 1016.2
20200228112817 9 157 1.6 1.6 0.00 0.00 0.00 75 1016.2
20200228111817 9 157 1.6 1.6 0.00 0.00 0.00 75 1016.3
20200228110817 10 180 1.6 3.2 0.00 0.00 0.00 73 1016.4
20200228105815 10 0.0 1.6 0.00 0.00 0.00 71 1016.4
20200228104817 11 0.0 1.6 0.00 0.00 0.00 72 1016.4
20200228103817 11 0.0 1.6 0.00 0.00 0.00 71 1016.1
20200228102817 11 202 1.6 3.2 0.00 0.00 0.00 71 1016.0
20200228101817 11 0.0 1.6 0.00 0.00 0.00 70 1015.9
20200228100817 11 0.0 1.6 0.00 0.00 0.00 71 1015.8
20200228095817 11 0.0 0.0 0.00 0.00 0.00 70 1015.8